[[{"header":{"parameterUnit":"m.s-1","parameterCategory":1,"la1":30.2991,"la2":30.254,"lo1":-89.0895,"lo2":-89.0444,"dy":0.0017,"dx":0.0017,"nx":28,"ny":28,"refTime":"2026-02-03T09:00:00:Z","depth":0,"parameterNumber":2,"parameterNumberName":"U-component_of_WINDS"},"data":[0,0,0,0,0,0,0,0,0,0,0,0,0,0,0,0,0,0,0,0,0,0,0,0,0,0,0,0,0,0,0,0,0,0,0,0,0,0,0,0,0,0,0,0,0,0,0,0,0,0,0,0,0,0,0,0,0,0,0.3098,0.3098,0,0.3181,0.3182,0.3183,0.3204,0.3203,0.3202,0.3202,0.3289,0.3292,0.3294,0,0,0,0,0,0,0,0,0,0,0,0,0,0.2956,0.2959,0.3098,0.3099,0.31,0.3181,0.3182,0.3184,0.3204,0.3203,0.3202,0.3202,0.3288,0.3291,0.3295,0,0,0,0,0,0,0,0,0,0,0,0,0,0.3027,0.296,0.3097,0.3119,0.3122,0.3181,0.3182,0.3184,0.3204,0.3203,0.3202,0.3201,0.3287,0.3291,0.3295,0.3338,0,0,0.3308,0.331,0,0,0,0,0,0,0,0,0.3023,0.3032,0.3115,0.3118,0.3121,0.3181,0.3165,0.3236,0.3204,0.3173,0.3202,0.3201,0.3254,0.3261,0.3278,0.3342,0.3346,0.3309,0.3311,0.3313,0.3314,0,0,0,0,0,0,0,0.3018,0.3028,0.3131,0.3116,0.312,0.3126,0.3135,0.3178,0.3217,0.3175,0.3177,0.3187,0.3255,0.3274,0.328,0.3347,0.3308,0.3312,0.3315,0.3316,0.3452,0.3453,0,0,0,0,0,0,0.3009,0.3024,0.3128,0.3133,0.3069,0.3129,0.3139,0.3163,0.3217,0.3224,0.3187,0.3187,0.3267,0.3275,0.3284,0.3338,0.3313,0.3317,0.3319,0.3451,0.3453,0.3454,0,0,0,0,0,0,0.3006,0.3018,0.3125,0.3079,0.3093,0.3132,0.3159,0.3165,0.3184,0.3226,0.3233,0.3199,0.3267,0.3278,0.3325,0.3342,0.3319,0.3323,0.345,0.3452,0.3453,0.3448,0,0,0,0,0,0,0.3002,0.3017,0.3033,0.3079,0.3096,0.3164,0.316,0.3167,0.3191,0.3192,0.3239,0.3246,0.3267,0.3318,0.3329,0.3347,0.3326,0.3449,0.3451,0.3453,0.3446,0.3449,0.3451,0,0,0,0,0,0.2997,0.3028,0.3034,0.3046,0.3117,0.3165,0.3174,0.3198,0.3192,0.3209,0.3236,0.3244,0.3338,0.3323,0.3335,0.3355,0.3448,0.345,0.3452,0.3446,0.3448,0.3451,0,0,0,0,0,0,0.2983,0.3034,0.3041,0.3089,0.3122,0.3168,0.319,0.32,0.3236,0.3235,0.3263,0.3274,0.3319,0.3342,0.3324,0.34,0.3393,0.3398,0.3383,0.3387,0.3389,0.3382,0.333,0,0,0,0,0,0.2985,0.3019,0.3063,0.3101,0.3117,0.3151,0.3172,0.3188,0.3224,0.3238,0.3268,0.3303,0.3341,0.3365,0.3402,0.345,0.3461,0.347,0.3472,0.3473,0.3477,0.3506,0.351,0.3461,0.3461,0.3461,0,0,0.299,0.3023,0.3043,0.3099,0.3126,0.3162,0.3162,0.32,0.3226,0.3244,0.329,0.3314,0.3355,0.3403,0.3426,0.3423,0.3493,0.3476,0.3477,0.3481,0.3509,0.3513,0.3517,0.3463,0.3463,0.3462,0,0,0.3018,0.3046,0.3081,0.3109,0.3151,0.3173,0.3182,0.3226,0.3243,0.329,0.3304,0.3337,0.34,0.3429,0.3452,0.3492,0.3501,0.3503,0.3515,0.3542,0.3546,0.355,0.3565,0.357,0.3507,0.3507,0.3507,0,0.302,0.3073,0.3098,0.3135,0.3159,0.3177,0.3213,0.3239,0.3291,0.3307,0.3304,0.3385,0.3414,0.3469,0.3479,0.3497,0.3508,0.3498,0.3543,0.3547,0.3551,0.3566,0.3571,0.3507,0.3507,0.3507,0.3507,0,0.3073,0.311,0.3134,0.3183,0.3211,0.3247,0.3277,0.3302,0.3315,0.3338,0.3387,0.3422,0.3467,0.3481,0.3494,0.3539,0.3536,0.3538,0.3531,0.3555,0.357,0.3575,0.3507,0.3507,0.3507,0.3507,0,0,0.3094,0.3158,0.3166,0.3189,0.3237,0.3267,0.3304,0.3348,0.3369,0.3404,0.3437,0.3491,0.3493,0.3519,0.3536,0.356,0.3591,0.3559,0.356,0.3564,0.3643,0.3642,0.3648,0.3597,0.3598,0.3599,0.364,0,0.3128,0.3195,0.3219,0.3275,0.331,0.3328,0.3361,0.3394,0.3417,0.345,0.3476,0.3514,0.3513,0.3529,0.3554,0.3582,0.3607,0.3579,0.3628,0.363,0.3618,0.3655,0.3654,0.3691,0.3646,0.3647,0.3647,0,0.3177,0.3213,0.3272,0.3317,0.3333,0.3362,0.3404,0.3436,0.3475,0.349,0.3519,0.3535,0.3576,0.3567,0.3624,0.3605,0.3626,0.3643,0.3645,0.3651,0.364,0.3663,0.3703,0.3709,0.3656,0.3656,0.3655,0,0.3187,0.3251,0.3294,0.3314,0.3367,0.3387,0.341,0.3448,0.3473,0.3511,0.3528,0.3569,0.3592,0.3624,0.3651,0.3642,0.3706,0.3699,0.3721,0.372,0.3733,0.3732,0.3778,0.3747,0.3747,0.3746,0.3746,0,0.3222,0.3258,0.33,0.3327,0.3368,0.3395,0.3435,0.3459,0.3493,0.3526,0.3544,0.3574,0.3608,0.3643,0.3664,0.3709,0.3719,0.3733,0.3738,0.3731,0.3729,0.3746,0.3744,0.3748,0.3748,0.3747,0.3747,0,0.324,0.3269,0.3319,0.3365,0.3378,0.3406,0.3446,0.3474,0.3498,0.3539,0.355,0.3588,0.363,0.366,0.3714,0.3729,0.3777,0.3782,0.3764,0.3767,0.3787,0.3784,0.3845,0.3855,0.3816,0.3817,0.3817,0,0.3261,0.3289,0.3339,0.3362,0.3385,0.3422,0.3448,0.3477,0.3503,0.355,0.3572,0.3615,0.3652,0.3719,0.3751,0.3793,0.38,0.3818,0.3806,0.3799,0.3801,0.3799,0.3802,0.382,0.382,0.382,0.3821,0,0.3295,0.3309,0.3345,0.3387,0.3417,0.3451,0.3486,0.3504,0.3539,0.3568,0.3611,0.3639,0.3695,0.3739,0.3784,0.3809,0.3821,0.3824,0.3831,0.3825,0.3813,0.3821,0.3769,0.3823,0.3822,0.3822,0.3822,0.3822,0.3316,0.3342,0.3381,0.3421,0.345,0.3483,0.3511,0.3539,0.3575,0.3623,0.3638,0.3683,0.3723,0.3785,0.3811,0.3847,0.3846,0.3856,0.3859,0.3861,0.3861,0.3807,0.3855,0.3855,0.3855,0.3855,0.3855,0,0.3351,0.3378,0.3414,0.3462,0.3494,0.3503,0.3542,0.3568,0.3608,0.3644,0.3679,0.373,0.3772,0.3809,0.3853,0.3875,0.3882,0.3886,0.3885,0.3891,0.3859,0.3849,0.388,0.388,0.388,0.388,0.388,0.388,0.3373,0.3418,0.3436,0.3496,0.3523,0.3567,0.3589,0.3619,0.3648,0.3704,0.3739,0.3762,0.3799,0.3846,0.3886,0.3896,0.3911,0.3914,0.3925,0.3895,0.3893,0.389,0.388,0.3917,0.3917,0.3953,0.3954,0.3954]},{"header":{"parameterUnit":"m.s-1","parameterCategory":1,"la1":30.2991,"la2":30.254,"lo1":-89.0895,"lo2":-89.0444,"dy":0.0017,"dx":0.0017,"nx":28,"ny":28,"refTime":"2026-02-03T09:00:00:Z","depth":0,"parameterNumber":3,"parameterNumberName":"V-component_of_WINDS"},"data":[0,0,0,0,0,0,0,0,0,0,0,0,0,0,0,0,0,0,0,0,0,0,0,0,0,0,0,0,0,0,0,0,0,0,0,0,0,0,0,0,0,0,0,0,0,0,0,0,0,0,0,0,0,0,0,0,0,0,1.8521,1.8524,0,1.8753,1.8756,1.8759,1.8837,1.8836,1.8835,1.8834,1.9076,1.9083,1.9091,0,0,0,0,0,0,0,0,0,0,0,0,0,1.8151,1.8157,1.8521,1.8524,1.8527,1.8753,1.8756,1.8759,1.8837,1.8836,1.8835,1.8834,1.9074,1.9083,1.9091,0,0,0,0,0,0,0,0,0,0,0,0,0,1.834,1.8159,1.8521,1.8593,1.8602,1.8752,1.8756,1.876,1.8838,1.8836,1.8835,1.8833,1.9071,1.9082,1.9093,1.9189,0,0,1.9126,1.9131,0,0,0,0,0,0,0,0,1.8329,1.8353,1.8579,1.8588,1.8598,1.8765,1.8714,1.8904,1.8838,1.8748,1.8834,1.8833,1.8974,1.8993,1.904,1.92,1.9211,1.9127,1.9134,1.9139,1.9142,0,0,0,0,0,0,0,1.8316,1.8344,1.8613,1.8583,1.8594,1.8616,1.8641,1.8751,1.8866,1.8756,1.8762,1.8788,1.8979,1.9029,1.9046,1.9214,1.9127,1.9137,1.9143,1.9148,1.9469,1.9471,0,0,0,0,0,0,1.829,1.8332,1.8606,1.862,1.8457,1.8623,1.8652,1.8713,1.8865,1.8887,1.8789,1.8791,1.9011,1.9033,1.9055,1.918,1.9138,1.9149,1.9155,1.9467,1.947,1.9472,0,0,0,0,0,0,1.8282,1.8313,1.8596,1.8478,1.8516,1.8631,1.8699,1.8718,1.8768,1.8891,1.8912,1.8819,1.9011,1.9039,1.9156,1.919,1.9154,1.9164,1.9465,1.9468,1.9471,1.943,0,0,0,0,0,0,1.8271,1.831,1.8347,1.8478,1.8522,1.8692,1.8701,1.8724,1.8786,1.8791,1.8924,1.8945,1.9012,1.9139,1.9166,1.9204,1.9172,1.9462,1.9466,1.947,1.9429,1.9432,1.9434,0,0,0,0,0,1.8257,1.8327,1.8348,1.8381,1.857,1.8693,1.8718,1.8793,1.8789,1.8828,1.8907,1.8941,1.9181,1.915,1.9182,1.9223,1.9461,1.9465,1.9469,1.9428,1.9431,1.9433,0,0,0,0,0,0,1.8198,1.8345,1.8371,1.8484,1.8575,1.8706,1.8758,1.8793,1.8888,1.8889,1.8978,1.9008,1.9118,1.9182,1.9145,1.9326,1.9323,1.9334,1.9281,1.9284,1.9286,1.927,1.9181,0,0,0,0,0,1.8197,1.8284,1.8409,1.8497,1.8541,1.8641,1.8698,1.8747,1.8846,1.8885,1.8973,1.9068,1.9166,1.9228,1.9324,1.9438,1.947,1.9483,1.9485,1.9486,1.9495,1.9563,1.9571,1.9486,1.9486,1.9486,0,0,1.8198,1.829,1.8339,1.8487,1.8564,1.8653,1.8673,1.8767,1.8835,1.89,1.9016,1.9083,1.9196,1.9311,1.9367,1.9369,1.9525,1.9491,1.9491,1.9501,1.9568,1.9576,1.9583,1.9489,1.9488,1.9488,0,0,1.8247,1.8323,1.8406,1.8482,1.8597,1.8663,1.8683,1.8809,1.8856,1.8973,1.9024,1.9107,1.9272,1.9351,1.9413,1.9491,1.9527,1.952,1.9533,1.9597,1.9604,1.9611,1.9641,1.9651,1.9528,1.9528,1.9528,0,1.8234,1.8369,1.8445,1.8536,1.8601,1.8662,1.8749,1.8819,1.896,1.9005,1.9004,1.9214,1.9294,1.943,1.9449,1.9496,1.9524,1.9507,1.9597,1.9604,1.9611,1.9642,1.9653,1.9527,1.9527,1.9527,1.9527,0,1.835,1.8443,1.8496,1.863,1.8701,1.8789,1.8879,1.8942,1.8985,1.9052,1.9171,1.9269,1.9388,1.9423,1.9466,1.9567,1.9565,1.9579,1.9578,1.9617,1.9647,1.9659,1.9525,1.9525,1.9526,1.9526,0,0,1.8369,1.8542,1.8561,1.8623,1.8755,1.8829,1.8921,1.9035,1.9089,1.9184,1.9265,1.9403,1.9418,1.9488,1.9541,1.9597,1.9656,1.9605,1.9609,1.9614,1.9776,1.9766,1.9778,1.968,1.9682,1.9684,1.9768,0,1.8436,1.8601,1.8672,1.8806,1.8894,1.8954,1.9034,1.9125,1.9189,1.9275,1.9347,1.9445,1.9455,1.9499,1.9557,1.9636,1.9691,1.9631,1.9759,1.9762,1.9731,1.9794,1.9784,1.9858,1.978,1.9782,1.9783,0,1.8537,1.8632,1.8774,1.8896,1.8936,1.9007,1.9118,1.9198,1.9303,1.9346,1.9424,1.9474,1.9575,1.9565,1.9707,1.9665,1.9721,1.9768,1.9773,1.979,1.9777,1.9815,1.9883,1.9895,1.9802,1.9801,1.9799,0,1.854,1.8703,1.881,1.8861,1.9005,1.9054,1.9117,1.9219,1.9284,1.9382,1.9425,1.9533,1.9594,1.9677,1.9756,1.9741,1.9892,1.9887,1.9933,1.9931,1.9964,1.9962,2.0045,1.9995,1.9995,1.9995,1.9994,0,1.861,1.8695,1.8813,1.8879,1.8977,1.9058,1.9153,1.9221,1.9312,1.9393,1.9451,1.9527,1.9625,1.9714,1.9776,1.9886,1.9912,1.9952,1.9968,1.9948,1.9943,1.9988,1.9986,1.9998,1.9997,1.9997,1.9996,0,1.863,1.8712,1.8833,1.896,1.8993,1.906,1.917,1.9237,1.9304,1.9407,1.9436,1.9542,1.965,1.9736,1.9877,1.9919,2.0035,2.0051,1.9999,2.0008,2.005,2.0046,2.0168,2.0189,2.0121,2.0122,2.0122,0,1.8671,1.8738,1.8871,1.8929,1.8991,1.9084,1.915,1.9232,1.93,1.9424,1.9477,1.9588,1.9682,1.9852,1.9943,2.0052,2.0073,2.0108,2.009,2.0069,2.0078,2.0074,2.0082,2.0111,2.0111,2.0111,2.0112,0,1.8735,1.8772,1.8864,1.8971,1.9048,1.9137,1.9227,1.9272,1.9371,1.9444,1.9554,1.9626,1.977,1.9881,1.9999,2.0067,2.0107,2.0116,2.0133,2.0115,2.0084,2.0105,2.0008,2.0114,2.0114,2.0113,2.0113,2.0113,1.8769,1.8832,1.8936,1.9038,1.9114,1.9197,1.9267,1.9342,1.9435,1.9558,1.9601,1.9715,1.9819,1.9982,2.005,2.0142,2.0145,2.0169,2.0175,2.0181,2.018,2.0066,2.0163,2.0163,2.0163,2.0163,2.0163,0,1.8839,1.8908,1.9001,1.9125,1.9205,1.9233,1.9334,1.9401,1.95,1.9593,1.9684,1.9812,1.992,2.0019,2.0132,2.0187,2.0209,2.0214,2.0213,2.0228,2.0169,2.0144,2.0195,2.0195,2.0195,2.0195,2.0195,2.0195,1.8885,1.8994,1.9043,1.9191,1.9261,1.9372,1.9428,1.9506,1.9581,1.972,1.981,1.9873,1.997,2.0091,2.0192,2.0219,2.0259,2.0261,2.0293,2.0236,2.0232,2.0228,2.0205,2.0268,2.0268,2.0345,2.0346,2.0346]}]]